星链-31953 (STARLINK-31953 )

导读

STARLINK-31953是美国SpaceX星链(Starlink)卫星互联网项目中的一颗第二代低轨卫星,于2024年5月28日发射升空。它运行在约550公里近地轨道,属于Starlink v2.0 mini平台,旨在为全球提供高速低延迟宽带互联网服务,重点改善偏远地区网络覆盖,同时可为商业及军事用户提供可靠通信支撑,目前该卫星处于在轨运行状态。

Basic Information
目录编号:
59898
目录名称:
STARLINK-31953
国际标识:
2024-100P
轨道中心:
EARTH
卫星名称:
星链-31953
卫星全名:
星链-31953 (STARLINK-31953 )
卫星状态:
在轨 (已飞行829 天)
发射日期:
2024-05-28 UTC
国别 :
美国 (US)
星等 :
--
Orbit Information
数据来源 国际轨道数据 AOE轨道数据
星历时间 2026-09-04T12:15:52+0800
7小时前
查看轨道信息
2026-09-03T23:00:00+0800
20小时前
查看轨道信息
半长轴 6861.171km 6861.126km
偏心率 0.0001164 0.0001221
轨道倾角 43.003° 43.001°
近地点辐角 274.634° 255.142°
升交点赤经 193.992° 197.115°
平近点角 85.438° 302.005°
近地点 482.235km 482.151km
远地点 483.833km 483.827km
周期 94.266分钟 94.265分钟
每日圈数 15.275852 15.276003
Detailed Information
固有亮度:
5
最大亮度:
1.5
卫星平台:
Starlink v2.0 mini
覆盖范围:
全球
运营商:
太空探索技术公司
运营商所在国:
美国
制造商(研发单位):
太空探索技术公司
制造商所在国:
美国
使用方式:
暂无
Satellite Introduction
星链(Starlink)计划是由太空探索技术公司(SpaceX)提出的一个巨型低轨卫星互联网星座项目,计划在2019年至2024年间在太空搭建由约1.2万颗卫星组成的“星链”网络,其中1584颗将部署在地球上空550千米处的近地轨道,并从2020年开始工作。该卫星仍在工作。
2D Orbit Map
3D Orbit Map
Orbit Altitude Analysis Chart
Orbit Inclination Analysis Chart
Orbit Comprehensive Analysis Chart
View Comprehensive Chart
Conjunction Data List
Event ID Objects TCA Miss Dist (km) Collision Risk Probability Collision Risk Index (CRI) Action
CDM_260830-180104-394605-989825
2026-08-30T
18:01:56+0000
0.695 km
远距离
8.034495E-5 中风险 0.73
CDM_260905-120805-717605-989821
OBJECT L (57176)
2026-09-05T
12:08:36+0000
2.904 km
极远距离
1.306419E-6 低风险 0.37